Tracking 27401 objects as of 3-Jun-2023
HD Live streaming from Space Station
objects crossing your sky now

THOR ABLESTAR DEB

Track THOR ABLESTAR DEB now!
10-day predictions


NORAD ID: 350
Int'l Code: 1961-015DQ
Perigee: 731.5 km
Apogee: 925.4 km
Inclination: 66.9 °
Period: 101.3 minutes
Semi major axis: 7199 km
RCS: 0.1129 m2 (medium)
Launch date: June 29, 1961
Source: United States (US)
Launch site: AIR FORCE EASTERN TEST RANGE (AFETR)

Note: This is SATELLITE DEBRIS
Your satellite tracking list
Your tracking list is empty




NASA's NSSDC Master Catalog

Two Line Element Set (TLE):
1 00350U 61015DQ  23153.80167258  .00000206  00000-0  12072-3 0  9995
2 00350  66.9113 192.5804 0134669 270.6617  87.9050 14.21197684205080
Source of the keplerian elements: AFSPC